Вернуться в каталог

STARLINK-36695

АктивенСвязьSSO
NORAD 67702·PAYLOAD·🇺🇸 United States

Запущен Feb 7, 2026 с Vandenberg Space Force Base

Loading…

Ближайшие Пролёты (ближайшие 24 часа)

TLE

СвежийSource: CelesTrak SupGP

Эпоха: Sep 14, 2026, 14:26 UTC

1 67702C 26025K   26257.60187500  .00065949  00000+0  20490-2 0  2572
2 67702  97.2859   7.6373 0000875  79.3828 340.7978 15.33378161    14

Отслеживайте STARLINK-36695 в реальном времени с AllMySat

Download on the App Store